Denton, TX

9:52 AM CDT on July 20, 2017 (GMT -0500)
Denton Municipal

Weather History for KDTO - January, 2014

Change the Weather History Date:

Friday, January 24, 2014

  Actual Average Record
Temperature  
Mean Temperature 27 °F -  
Max Temperature 42 °F 54 °F 78 °F (1999)
Min Temperature 12 °F 32 °F 12 °F (2014)
Degree Days  
Heating Degree Days 38    
Moisture  
Dew Point 3 °F    
Average Humidity 39    
Maximum Humidity 64    
Minimum Humidity 18    
Precipitation  
Precipitation 0.00 in - - ()
Sea Level Pressure  
Sea Level Pressure 30.56 in    
Wind  
Wind Speed 8 mph (WSW)    
Max Wind Speed 16 mph    
Max Gust Speed -    
Visibility 10 miles    
Events      
Averages and records for this station are not official NWS values.
T = Trace of Precipitation, MM = Missing Value Source: NWS Daily Summary

Daily Weather History Graph

Daily Weather History Graph

Search for Another Location

Airport or City:

Trip Planner

Search our weather history database for the weather conditions in past years. The results will help you decide how hot, cold, wet, or windy it might be!

Date:

Astronomy

Jan. 24, 2014 Rise Set
Actual Time 7:29 AM CST 5:53 PM CST
Civil Twilight 7:02 AM CST 6:19 PM CST
Nautical Twilight 6:32 AM CST 6:49 PM CST
Astronomical Twilight 6:03 AM CST 7:19 PM CST
Moon 1:01 AM CST (1/24) 12:09 PM CST (1/24)
Length of Visible Light 11h 16m
Length of Day
10h 24m
Last Quarter, 44% of the Moon is Illuminated
Jan 24
Last Quarter
Jan 30
New
Feb 6
First Quarter
Feb 14
Full
Feb 22
Last Quarter

Hourly Weather History & Observations

Time (CST) Temp. Windchill Dew Point Humidity Pressure Visibility Wind Dir Wind Speed Gust Speed Precip Events Conditions
12:53 AM 19.9 °F 9.3 °F -2.0 °F 38% 30.78 in 10.0 mi North 9.2 mph - N/A   Clear
1:53 AM 19.9 °F 9.3 °F -2.0 °F 38% 30.79 in 10.0 mi North 9.2 mph - N/A   Clear
2:53 AM 18.0 °F 9.8 °F -0.9 °F 44% 30.79 in 10.0 mi North 5.8 mph - N/A   Clear
3:53 AM 16.0 °F 7.4 °F -0.0 °F 49% 30.77 in 10.0 mi NNW 5.8 mph - N/A   Clear
4:53 AM 15.1 °F 7.7 °F -0.0 °F 51% 30.76 in 10.0 mi NW 4.6 mph - N/A   Clear
5:53 AM 12.9 °F 5.2 °F 1.0 °F 59% 30.75 in 10.0 mi NW 4.6 mph - N/A   Clear
6:53 AM 12.0 °F 2.7 °F 1.0 °F 61% 30.75 in 10.0 mi WNW 5.8 mph - N/A   Clear
7:53 AM 12.0 °F 4.1 °F 1.9 °F 64% 30.74 in 10.0 mi West 4.6 mph - N/A   Clear
8:53 AM 16.0 °F 8.8 °F 3.9 °F 59% 30.72 in 10.0 mi West 4.6 mph - N/A   Clear
9:53 AM 21.0 °F 14.6 °F -0.9 °F 38% 30.71 in 10.0 mi SW 4.6 mph - N/A   Clear
10:53 AM 25.0 °F 19.3 °F -0.9 °F 33% 30.69 in 10.0 mi WSW 4.6 mph - N/A   Clear
11:53 AM 28.9 °F 20.4 °F -0.9 °F 28% 30.64 in 10.0 mi West 9.2 mph - N/A   Clear
12:53 PM 34.0 °F 28.0 °F -0.9 °F 23% 30.57 in 10.0 mi West 6.9 mph - N/A   Clear
1:53 PM 37.0 °F 29.3 °F -0.0 °F 21% 30.50 in 10.0 mi SSW 11.5 mph - N/A   Clear
2:53 PM 39.9 °F 33.4 °F -0.9 °F 18% 30.45 in 10.0 mi SW 10.4 mph - N/A   Clear
3:53 PM 42.1 °F 35.7 °F 1.9 °F 19% 30.42 in 10.0 mi SSW 11.5 mph - N/A   Clear
4:53 PM 41.0 °F 32.8 °F 3.0 °F 21% 30.39 in 10.0 mi SSW 16.1 mph - N/A   Clear
5:53 PM 36.0 °F 29.6 °F 6.1 °F 29% 30.36 in 10.0 mi SSW 8.1 mph - N/A   Clear
6:53 PM 30.9 °F 23.5 °F 7.0 °F 37% 30.34 in 10.0 mi South 8.1 mph - N/A   Clear
7:53 PM 30.0 °F 25.2 °F 7.0 °F 38% 30.32 in 10.0 mi South 4.6 mph - N/A   Clear
8:53 PM 28.9 °F 21.9 °F 9.0 °F 43% 30.31 in 10.0 mi South 6.9 mph - N/A   Clear
9:53 PM 28.0 °F 19.3 °F 10.0 °F 47% 30.29 in 10.0 mi South 9.2 mph - N/A   Clear
10:53 PM 28.9 °F 20.4 °F 10.0 °F 45% 30.26 in 10.0 mi SSW 9.2 mph - N/A   Clear
11:53 PM 30.9 °F 22.2 °F 9.0 °F 40% 30.23 in 10.0 mi SSW 10.4 mph - N/A   Clear